Theta_e
315 317 322 323 325 325 325 324 317 320 318 309 311 314 317 323 322 321 322 322 325 330 332 333 332 337 342 338 338 343 346 349 348 339 341 355 353 351 353 351 353 351 351 348 347 344 342 341 340 342 342 344 344 344 343 342 342 341 341 340 340 336 333 334 334 335 337 337 339 341 338 337 338 341 342 343 342 343 344 344 344 344 344 344 345 344 344 344 343 344 343 343 343 343 342 341 341
323 321 323 323 324 324 325 324 316 314 312 307 312 316 318 323 321 320 322 324 333 335 334 335 337 339 339 337 334 340 347 348 351 350 350 354 352 353 353 352 352 350 350 348 346 344 345 343 340 341 341 342 343 342 343 341 341 341 341 340 338 337 337 336 335 336 338 337 340 341 340 338 338 341 341 342 342 343 344 344 345 344 344 344 344 344 344 344 344 344 343 343 343 343 342 341 340
324 320 322 323 323 324 323 321 314 308 308 307 311 320 322 321 321 322 325 330 336 335 336 336 337 339 337 334 335 339 344 347 350 348 349 352 352 353 353 353 351 351 350 347 345 344 345 343 338 339 340 341 341 341 341 341 341 341 340 338 336 337 336 335 335 337 338 337 339 340 341 340 339 341 340 342 342 342 344 344 345 344 344 344 344 344 344 344 343 343 342 340 338 338 339 338 337
321 321 323 323 322 321 319 318 315 309 307 307 309 320 322 320 323 324 327 333 334 333 335 335 335 339 340 337 337 341 343 346 350 348 350 352 352 353 354 353 351 351 349 346 345 344 345 341 336 336 337 338 339 339 340 340 340 339 338 336 335 336 334 334 336 337 337 337 337 339 341 340 340 340 340 342 342 342 342 343 344 344 344 343 343 343 343 343 343 343 342 338 334 334 334 332 330
319 321 321 322 323 322 319 318 317 311 309 310 311 318 322 321 324 323 326 330 331 334 333 334 333 334 340 341 341 344 344 345 348 349 351 351 353 353 353 352 351 350 348 347 345 345 345 340 334 334 334 335 337 338 338 338 337 337 335 334 334 335 334 335 337 337 337 337 336 337 338 339 340 340 340 341 342 342 341 343 343 343 343 342 342 341 341 341 341 341 341 339 335 332 330 328 328
321 320 319 320 322 323 320 315 313 312 314 318 316 318 323 322 323 322 324 327 331 335 333 335 334 332 340 345 345 345 347 346 346 348 350 351 353 353 353 352 351 350 348 347 346 346 344 338 334 333 332 332 334 336 336 334 332 333 333 333 333 334 335 337 338 338 338 338 337 337 337 338 340 340 340 340 341 342 342 343 342 343 342 341 340 339 339 338 338 339 338 338 336 333 330 330 330
320 320 318 318 319 320 317 312 311 313 318 321 319 321 323 322 323 321 323 326 328 331 334 335 334 334 338 344 345 346 350 346 344 346 349 352 353 353 352 352 351 350 348 347 347 347 342 335 332 332 331 331 332 332 332 330 329 330 331 334 334 335 337 337 338 338 338 338 337 337 337 338 339 340 340 340 341 341 341 342 342 342 340 340 337 335 337 336 336 337 336 336 334 332 331 331 330
319 321 320 318 318 318 315 312 314 317 319 320 320 322 322 323 322 321 323 325 327 329 331 332 333 335 334 341 346 347 350 347 346 348 351 352 352 352 351 352 351 350 347 348 348 345 340 333 332 331 330 330 328 329 329 328 329 330 333 334 334 335 337 337 338 338 338 338 338 337 338 338 338 339 339 340 340 340 341 341 340 340 339 339 334 331 333 333 333 333 332 332 332 331 330 331 330
318 319 320 318 317 317 314 312 315 319 321 319 319 321 321 323 322 322 322 323 327 328 329 331 332 335 336 342 345 346 349 349 349 350 352 352 352 352 351 351 350 350 348 348 347 343 339 334 331 330 328 327 327 327 328 328 330 333 334 333 333 335 334 335 336 336 336 336 336 335 336 337 337 339 339 339 339 340 340 340 340 338 339 336 331 331 331 330 330 329 330 330 331 332 331 330 330
318 317 318 318 315 314 311 313 315 319 321 319 319 320 321 321 321 322 322 322 328 330 331 332 331 335 338 342 346 347 348 350 350 350 352 352 352 351 351 351 350 350 349 349 347 343 341 336 329 328 327 326 326 327 328 330 332 334 334 332 334 337 335 336 336 335 336 335 334 334 336 336 337 338 339 339 338 339 339 339 339 338 338 334 330 331 331 330 329 329 330 331 331 331 331 330 329
319 316 317 317 313 309 309 312 314 319 320 319 320 321 321 321 321 321 322 323 328 333 332 330 331 334 339 344 348 350 350 350 351 351 352 351 351 352 351 351 350 350 349 349 346 343 342 338 331 328 327 327 328 329 332 334 335 334 333 334 336 338 338 338 337 337 338 338 337 337 336 336 336 337 338 339 338 338 338 339 338 338 336 330 329 331 332 330 329 329 330 331 330 329 329 328 327
318 317 317 313 311 311 311 313 314 319 319 318 320 320 321 320 321 321 322 326 330 333 329 330 332 333 340 343 347 349 351 352 352 352 351 351 350 352 351 350 350 350 350 348 346 344 342 340 336 332 331 330 331 333 335 337 336 335 335 336 337 338 338 337 338 338 339 340 339 338 336 336 335 335 336 337 338 338 337 338 338 338 334 329 329 330 332 331 330 330 330 330 330 329 328 326 325
316 319 318 312 313 315 315 314 316 318 318 320 320 321 320 320 322 321 323 327 332 331 329 333 333 335 341 344 347 348 351 353 353 352 351 350 349 350 350 350 350 350 350 348 347 345 343 342 339 338 336 333 334 336 337 338 337 336 336 338 337 337 337 336 338 339 339 339 339 339 339 338 336 335 333 333 336 338 337 337 338 338 332 329 329 329 331 332 331 331 330 330 330 329 327 324 322
316 318 318 315 316 317 316 314 315 314 315 321 320 321 321 321 322 322 326 329 332 333 333 335 333 339 342 345 348 346 350 352 353 352 351 351 349 350 350 351 350 350 349 347 347 345 345 344 342 341 338 337 337 337 337 338 337 336 336 338 337 336 336 336 338 339 339 339 339 339 339 338 337 335 331 327 331 337 337 336 338 337 332 329 328 328 331 332 332 331 331 330 329 328 326 321 319
317 318 319 316 316 316 315 314 315 313 315 321 321 321 321 324 327 326 329 331 336 336 334 337 337 341 340 341 343 343 348 351 353 352 351 350 350 350 351 352 350 350 349 348 348 346 346 344 344 342 340 340 340 339 338 338 337 336 336 337 338 336 336 336 338 339 339 339 338 338 337 337 337 334 331 326 326 331 333 336 338 337 332 329 329 327 330 332 332 331 331 330 330 328 324 319 317
317 318 318 315 314 313 314 316 317 315 317 321 322 324 325 328 330 331 334 335 337 335 335 338 339 341 338 338 340 343 348 351 352 351 350 350 349 351 351 352 350 349 349 349 348 347 346 345 345 343 342 341 341 341 339 338 337 337 337 337 339 337 336 336 337 339 338 338 337 336 335 337 337 333 332 330 326 325 329 335 335 335 331 329 329 327 329 332 332 332 331 330 329 326 321 316 316
316 318 317 314 313 312 314 317 317 316 318 322 323 326 327 328 331 333 335 334 334 335 338 339 339 340 338 338 342 347 349 350 351 349 349 348 348 350 351 351 350 349 349 349 348 348 347 346 345 343 343 343 342 341 340 340 336 335 336 337 339 338 337 335 335 337 337 336 336 335 334 338 339 334 334 334 331 326 329 335 334 333 331 328 328 327 328 331 332 332 331 330 329 325 319 316 315
316 317 316 313 314 315 317 318 318 319 320 322 324 327 329 329 330 332 333 334 334 334 338 339 340 340 340 342 344 349 348 349 350 348 348 347 346 348 351 350 350 349 348 349 348 347 348 347 345 343 343 343 343 341 340 340 334 334 336 334 336 337 337 335 334 336 337 337 336 335 337 341 341 339 338 337 335 331 328 331 331 332 330 327 327 327 328 331 332 332 331 330 329 325 325 324 320
316 317 315 315 317 317 319 319 319 319 320 321 324 327 330 330 329 331 332 334 334 334 337 339 339 338 341 343 346 349 348 349 349 348 347 346 345 346 348 350 350 349 347 349 348 346 346 346 345 344 343 342 343 342 341 339 335 336 338 335 335 335 335 335 337 339 339 338 337 338 340 342 342 341 340 338 338 337 330 327 328 329 328 326 327 326 328 331 332 332 331 330 329 331 334 334 330
316 317 316 317 318 318 319 320 319 319 319 320 322 324 329 331 330 330 331 333 332 332 335 336 338 338 340 341 345 349 348 349 349 348 347 344 345 345 345 347 348 348 347 347 346 345 345 346 345 344 344 343 342 341 341 339 337 338 340 339 338 337 337 337 339 340 339 338 339 341 341 342 342 341 341 340 339 338 334 329 326 326 325 325 326 327 329 331 332 332 331 330 331 335 338 335 334
316 318 318 318 318 317 318 319 319 319 318 319 321 323 330 332 328 329 331 332 331 331 332 334 335 335 338 338 343 348 348 350 349 348 347 344 346 345 345 344 345 347 347 345 343 343 344 345 345 344 344 343 341 340 341 339 338 340 340 340 341 339 339 340 341 340 339 338 339 341 341 341 342 342 340 340 339 338 337 334 331 329 328 326 327 331 332 331 333 334 332 331 333 336 338 336 335
316 318 318 318 318 316 318 319 318 318 318 319 320 321 327 329 327 329 331 330 329 331 330 331 332 333 336 337 342 346 347 349 349 348 346 346 346 345 346 345 345 346 345 343 342 341 342 344 344 344 343 343 341 339 340 339 339 341 340 340 340 339 339 341 342 342 340 339 340 340 340 340 340 341 340 339 338 337 337 337 335 334 333 329 329 333 334 333 335 337 335 333 335 337 338 338 336
318 318 317 317 317 317 319 319 317 318 318 318 318 318 322 323 325 329 329 327 328 330 329 331 331 334 338 338 341 344 346 348 349 347 346 347 346 346 346 345 345 345 344 342 342 341 341 342 343 343 343 343 342 339 340 340 340 341 340 340 340 339 338 340 342 342 340 339 340 340 340 340 339 340 340 339 338 337 336 336 336 336 334 331 330 334 333 334 335 336 336 335 336 337 338 338 335
316 317 317 317 317 317 319 319 318 318 317 317 318 317 319 319 323 328 326 325 327 329 330 332 332 335 339 339 340 344 346 347 347 347 347 348 347 347 346 346 346 344 344 343 342 343 341 341 341 341 342 342 341 340 340 340 341 341 340 341 340 339 339 340 341 340 339 338 339 339 339 339 339 339 339 339 339 338 337 336 336 336 336 332 331 333 333 334 336 337 337 335 336 336 337 337 334
315 315 317 316 316 317 318 318 317 317 317 317 317 317 318 318 322 326 323 324 326 329 331 332 332 334 338 339 342 345 346 346 349 349 348 348 349 348 346 344 343 342 342 342 343 344 343 343 342 340 341 341 340 340 342 342 342 342 341 341 341 340 340 341 340 339 340 338 339 340 339 338 338 338 338 339 339 338 336 336 336 336 336 334 332 333 333 333 335 337 338 337 337 336 336 336 334
315 314 317 316 316 317 318 318 318 318 317 317 317 317 318 318 322 323 322 325 325 328 332 332 331 334 337 340 342 344 344 346 350 350 349 349 348 347 343 340 340 341 342 343 343 343 344 344 344 343 344 342 340 341 343 342 342 343 342 340 340 340 339 339 339 339 340 339 339 340 338 338 337 337 338 339 339 338 337 337 337 336 336 336 335 333 332 333 334 336 338 337 336 336 336 336 334
316 314 315 316 316 316 317 318 318 318 317 317 317 317 318 318 319 320 322 325 326 330 332 331 331 333 337 339 342 343 343 348 352 350 348 348 346 344 341 339 339 341 342 343 343 343 344 343 342 343 345 345 343 342 342 342 341 340 341 340 340 339 338 338 339 339 339 339 339 339 339 338 337 337 338 338 338 338 338 337 337 337 336 336 337 335 333 333 333 334 336 336 336 336 336 336 335
316 315 315 316 316 316 317 317 318 318 317 317 317 318 318 317 320 322 324 326 328 331 332 330 330 332 336 338 340 341 342 348 350 348 347 345 344 342 339 339 340 342 343 343 343 343 345 343 341 341 343 344 344 343 340 340 340 340 340 340 339 340 339 339 340 339 338 339 339 339 339 338 337 337 337 337 337 337 337 336 336 337 337 337 337 336 335 334 333 333 334 335 335 336 336 336 335
316 316 315 315 316 316 317 317 318 318 317 317 318 316 315 318 322 325 327 328 330 331 330 330 330 332 336 339 339 340 342 347 348 346 345 343 343 342 340 339 341 342 343 343 343 343 344 344 343 341 342 342 343 344 342 339 339 340 340 339 340 341 341 340 339 339 339 339 340 339 338 338 338 337 337 336 336 336 336 336 336 336 337 337 336 336 336 335 334 334 334 335 335 334 335 335 336
315 316 315 315 314 315 317 317 317 318 317 318 317 312 313 318 321 323 325 329 333 331 329 330 331 333 336 338 339 341 343 346 348 345 343 342 342 342 341 341 341 342 344 342 342 342 342 343 343 342 343 343 342 343 344 342 340 340 341 340 341 341 341 341 340 340 340 340 339 339 338 337 336 337 337 336 336 336 335 336 336 335 335 337 337 336 337 336 335 335 335 335 335 334 334 336 336
315 314 314 315 311 311 317 317 317 318 316 318 317 310 313 318 319 321 324 327 330 330 330 331 331 334 338 340 340 341 343 345 347 345 343 343 342 342 342 341 341 343 344 342 341 341 341 342 342 342 343 343 343 342 343 343 342 341 341 341 341 341 341 341 341 341 340 340 340 339 339 338 337 337 337 336 335 335 335 336 337 336 336 337 337 337 337 336 335 335 334 335 336 335 335 335 335
314 312 310 313 310 311 317 317 317 318 316 317 317 312 316 321 319 320 324 326 326 328 330 332 335 338 339 341 340 340 342 344 346 345 343 343 342 342 342 341 341 343 343 341 341 340 341 341 341 341 341 341 343 342 341 342 341 341 341 341 341 341 341 341 341 341 340 340 340 340 339 338 337 337 337 336 335 335 335 336 337 336 335 336 337 337 336 336 335 335 335 335 336 336 336 335 334
313 311 308 311 310 310 315 316 317 317 316 317 316 315 322 325 322 321 324 325 324 326 330 332 338 339 339 340 341 340 342 343 343 344 343 343 343 342 342 342 341 342 342 341 340 339 340 341 340 341 340 340 341 341 340 340 340 340 341 341 341 341 341 341 341 341 341 340 340 340 339 338 338 338 337 337 336 335 335 335 335 335 335 336 336 336 337 336 335 335 335 335 335 336 335 335 335
311 312 310 310 312 311 312 314 317 317 317 317 316 320 324 325 325 323 324 325 324 325 329 333 338 340 341 340 338 340 342 342 342 343 343 342 342 342 341 342 341 341 341 340 340 339 339 340 340 340 340 340 340 339 339 339 339 340 340 341 341 341 341 341 340 340 340 340 340 340 339 339 339 339 338 337 336 336 336 335 335 336 336 337 335 336 336 335 334 333 335 335 335 336 334 334 335
309 310 310 310 311 312 312 313 316 317 317 316 316 321 325 325 326 326 325 325 324 327 330 331 336 338 340 340 338 340 342 342 342 343 343 342 342 341 340 341 340 340 340 340 340 339 339 339 340 339 339 340 339 339 339 339 339 339 339 340 340 340 341 341 340 341 341 340 340 339 340 340 339 339 338 338 338 337 337 336 335 335 336 336 335 336 336 334 334 334 334 334 335 336 333 332 333
313 312 312 310 310 311 314 316 317 317 316 316 317 321 326 326 327 329 328 326 328 333 335 334 335 338 341 341 340 340 340 341 343 342 342 341 342 341 340 340 339 339 339 339 340 340 340 339 340 339 339 340 340 340 340 340 340 340 340 339 338 339 340 341 341 341 341 340 340 340 340 340 339 339 337 337 338 337 337 337 335 335 335 336 336 336 335 334 334 335 335 334 335 336 334 332 333
316 314 313 313 310 311 316 317 316 317 316 315 318 322 326 328 328 331 330 330 333 336 339 338 338 340 342 340 340 341 340 339 341 341 341 341 341 341 340 339 339 340 339 339 340 340 339 339 340 339 339 340 340 341 341 342 341 341 340 339 338 338 339 340 340 341 340 340 340 340 340 339 338 338 337 337 337 337 337 337 337 336 335 336 337 335 335 335 334 335 335 335 335 335 334 332 333
317 313 312 312 311 311 316 318 316 317 315 316 320 324 327 330 330 331 332 333 335 335 337 338 339 340 339 338 338 339 337 336 337 337 337 338 339 340 340 340 339 339 339 339 339 339 339 339 339 339 339 339 339 339 340 341 342 341 340 339 339 338 338 338 338 340 340 340 340 340 340 339 338 338 337 337 337 337 336 337 338 338 337 337 337 336 335 335 334 334 335 336 335 335 333 332 332
317 314 311 310 311 313 316 316 316 316 316 319 323 324 327 331 331 332 333 334 334 334 335 336 337 336 336 336 336 336 334 332 331 331 332 332 334 335 337 338 337 337 337 337 338 339 338 339 338 338 338 338 339 339 339 340 341 341 339 338 339 338 337 338 338 339 340 339 339 339 339 339 339 338 338 337 337 337 337 337 337 338 338 336 336 336 336 335 334 333 334 335 335 334 333 332 332
316 314 310 309 312 312 311 314 319 319 320 323 324 324 327 331 331 332 331 332 332 331 332 332 332 333 331 330 330 330 330 329 328 327 328 329 329 330 331 333 334 334 335 335 335 336 336 337 338 338 338 338 338 338 338 339 339 339 339 339 340 338 336 337 339 339 339 339 338 339 339 338 338 338 337 337 336 337 337 337 337 337 337 336 336 336 336 335 334 333 333 333 334 333 333 332 333
315 314 312 310 313 313 312 316 319 318 320 323 323 321 324 328 330 332 330 330 330 329 330 330 330 330 328 327 326 325 325 325 325 324 325 326 326 326 327 328 329 330 331 332 333 333 334 335 336 337 338 338 338 338 338 338 339 339 339 339 340 339 338 339 339 338 339 340 338 337 338 337 336 337 337 336 337 337 337 336 336 336 337 336 336 336 335 335 334 333 332 332 332 332 332 333 333
312 314 314 314 315 315 314 316 315 313 315 321 321 317 319 325 327 330 330 329 329 328 330 330 328 327 326 326 325 323 323 322 323 323 323 324 324 324 324 324 326 326 327 328 329 330 331 333 334 336 337 337 338 338 338 338 339 339 339 339 339 338 337 337 337 335 336 339 339 338 338 338 337 336 337 337 337 337 337 336 336 336 336 336 336 336 336 335 334 334 333 332 331 331 331 332 331
309 313 315 316 317 315 314 315 313 311 313 320 322 315 315 321 324 329 330 330 329 328 329 329 327 325 324 323 323 322 322 322 321 321 322 323 322 322 322 322 323 324 325 326 327 328 329 330 332 333 335 335 336 337 337 338 339 339 339 338 337 337 335 334 335 336 336 338 338 338 338 338 337 337 337 337 336 336 336 336 336 336 336 336 336 336 335 335 334 335 334 332 331 331 331 331 330
310 314 316 316 316 315 315 315 313 313 315 319 320 314 315 320 324 328 331 330 329 328 328 328 325 324 322 322 321 321 321 321 321 320 320 322 321 321 322 322 322 323 323 325 325 326 327 327 329 331 332 334 334 334 335 336 337 338 338 338 337 335 333 334 336 337 337 337 338 338 338 337 338 337 337 337 336 336 336 336 336 336 335 336 336 336 335 335 334 334 333 332 332 331 330 331 331
314 316 315 315 316 316 317 315 313 314 315 314 316 314 314 319 324 327 329 329 330 329 327 327 325 323 322 321 321 320 320 320 319 319 320 321 321 321 321 321 322 322 323 323 324 324 325 326 327 328 329 330 331 331 332 334 335 336 337 338 337 334 332 335 338 335 334 336 337 336 337 337 337 337 337 336 336 336 336 336 336 336 335 334 335 335 334 334 334 333 333 332 331 331 331 331 330
316 316 316 315 316 317 317 316 313 312 313 312 315 315 311 317 325 327 327 328 329 329 328 326 325 323 321 321 320 320 319 319 319 320 321 320 320 321 321 321 321 321 322 322 323 323 324 325 326 326 327 327 328 329 330 331 333 335 335 336 337 335 334 337 338 335 334 335 336 336 337 337 337 337 337 337 336 337 337 336 336 336 335 334 334 333 332 333 333 333 332 332 332 331 331 331 329
315 316 316 314 315 316 315 315 312 310 311 310 313 316 312 317 326 327 326 328 328 329 328 326 324 322 321 320 320 319 319 319 318 320 321 321 320 320 320 321 321 321 322 322 322 323 323 324 324 325 325 325 326 327 328 329 331 332 334 335 335 336 336 337 338 337 335 334 335 336 337 336 335 336 337 337 337 337 337 336 336 335 335 334 333 333 333 333 333 333 333 332 332 331 331 330 329
315 316 314 311 311 312 311 312 311 310 310 309 312 315 310 315 325 327 328 330 328 328 328 326 323 322 321 320 319 319 319 319 318 318 319 320 320 320 320 320 320 320 321 321 321 321 322 323 323 324 324 324 325 326 326 328 329 330 332 333 333 334 335 336 336 336 335 334 333 334 336 336 334 334 336 337 337 337 337 336 336 335 334 333 333 333 333 333 333 333 333 332 332 331 331 331 330
315 314 312 310 309 310 311 311 310 311 310 309 313 312 312 320 328 329 330 330 327 326 326 324 322 321 320 319 319 319 318 318 317 317 318 319 319 319 319 320 320 320 319 319 320 320 320 321 322 322 323 323 324 324 325 326 327 328 329 330 332 332 333 333 334 334 334 334 334 334 336 336 334 333 334 336 337 336 336 336 335 335 334 332 332 333 333 334 333 332 332 332 332 331 331 331 332
314 312 310 309 309 312 313 311 311 311 309 311 313 311 320 331 333 329 329 327 325 324 323 322 321 320 320 319 318 318 318 317 317 317 317 318 319 318 318 318 318 318 318 318 319 319 319 319 320 321 321 322 323 323 324 325 325 326 327 328 330 330 331 332 333 333 333 334 334 334 335 334 335 333 331 334 336 335 335 335 334 334 334 333 333 333 333 334 334 332 332 332 332 332 331 330 331
313 314 312 310 309 311 312 311 310 310 309 312 312 312 324 335 333 328 327 325 323 323 321 322 321 319 319 319 318 318 317 317 317 316 317 318 318 317 317 317 317 317 317 317 317 317 318 318 318 319 320 320 321 322 322 323 324 324 325 326 327 328 329 330 331 332 332 332 332 333 333 333 334 334 333 334 335 335 336 336 334 334 335 334 333 334 334 333 334 333 332 333 332 332 331 330 331
313 314 312 310 310 312 310 312 313 311 311 311 314 320 327 330 329 326 325 324 323 323 322 321 321 320 319 318 318 317 317 316 315 315 316 317 317 316 317 317 316 316 317 317 316 316 316 317 317 318 319 319 319 320 321 322 322 323 324 325 325 326 326 328 329 331 332 332 332 332 333 333 333 334 334 335 334 334 335 335 335 335 335 334 333 334 334 333 334 334 333 333 333 332 332 331 332
312 311 309 311 314 314 310 311 315 313 311 311 318 329 330 329 329 326 324 325 324 322 322 321 320 319 318 318 317 316 315 315 314 314 315 316 316 316 316 316 316 316 316 316 316 316 316 316 317 317 317 318 318 319 319 320 321 321 322 323 323 324 325 326 327 328 330 331 332 332 332 332 333 333 334 335 334 333 332 333 334 334 333 333 334 334 334 333 334 333 333 333 333 333 332 332 332
312 309 311 313 315 315 311 310 313 312 312 315 320 328 331 330 330 327 324 325 324 323 322 321 320 319 317 317 316 315 315 314 314 315 315 316 315 315 315 316 315 315 315 316 316 316 316 316 316 317 317 317 317 318 318 319 319 320 320 321 321 322 324 324 325 326 328 330 331 332 332 332 332 332 333 333 333 332 332 333 333 333 332 333 334 334 333 333 333 333 333 334 334 333 332 332 332
313 311 313 313 311 311 311 311 312 312 313 317 319 323 326 326 327 327 326 325 324 323 322 321 319 319 317 316 315 315 314 314 314 314 314 315 315 315 315 315 315 315 315 315 315 315 316 316 316 317 317 316 316 317 317 317 318 318 318 319 320 321 322 322 323 324 326 328 330 331 332 331 332 332 332 332 332 332 331 331 332 333 332 331 333 334 333 332 333 333 333 333 334 333 333 333 332
314 313 313 313 311 310 310 310 312 312 311 315 317 318 322 324 325 327 326 325 324 323 322 321 319 318 317 316 315 315 314 314 314 313 314 315 314 314 314 314 315 315 315 315 315 315 315 315 315 316 316 316 316 316 316 316 316 316 316 317 318 319 320 320 321 322 324 326 328 330 331 331 331 331 332 331 331 331 331 331 331 332 331 331 333 333 332 332 332 332 332 332 333 333 333 333 333
312 311 310 311 311 312 312 310 311 310 310 313 314 319 327 329 327 326 325 325 324 323 322 320 318 317 316 315 315 314 314 314 314 313 314 314 314 314 314 314 314 314 314 314 314 314 314 314 315 315 315 315 315 315 316 316 316 315 315 316 317 318 318 318 319 320 322 324 326 328 329 330 331 331 331 331 331 331 331 330 330 331 331 331 333 333 332 332 332 331 331 331 332 333 333 332 332
312 311 311 311 310 310 311 311 311 309 311 311 310 323 332 329 327 326 325 324 323 322 321 318 317 316 315 315 314 314 314 314 313 313 314 314 313 313 313 313 313 313 313 313 313 314 314 314 314 314 314 314 314 315 315 315 315 315 315 315 316 316 317 317 317 318 319 321 322 324 326 328 330 330 330 330 330 330 330 330 330 330 330 331 332 332 331 331 331 331 330 331 332 333 332 332 332
Wind_Speed
0 3 5 8 9 10 9 6 6 4 6 9 8 10 6 1 1 4 5 3 2 3 3 2 3 3 5 5 8 13 16 12 8 4 2 7 9 10 9 12 17 18 17 17 18 18 18 17 19 19 21 22 22 22 22 22 20 19 18 16 15 15 16 15 16 18 17 17 16 14 15 16 16 16 15 13 11 13 14 14 15 16 16 16 17 17 17 17 17 17 16 16 15 14 14 14 14
4 6 7 8 10 9 5 4 7 5 8 8 8 12 3 5 1 6 3 2 3 5 4 4 5 3 4 5 6 9 15 15 12 8 8 10 11 9 11 15 17 17 16 17 18 18 17 16 19 20 22 22 22 21 21 20 19 18 17 16 16 16 15 14 17 19 17 17 17 15 14 15 16 16 16 13 12 14 15 15 16 16 17 17 17 17 17 16 16 16 15 15 14 13 13 13 12
6 7 8 9 9 9 4 4 7 7 9 8 8 6 3 2 2 3 5 5 5 5 4 5 6 4 1 3 6 8 9 10 13 11 8 11 11 10 14 16 16 17 16 17 17 18 16 16 19 20 21 22 21 20 19 19 18 17 17 17 16 16 15 14 18 19 17 17 17 16 15 14 16 17 15 13 12 13 14 15 16 16 16 16 16 15 15 14 14 14 14 13 12 12 12 12 12
6 8 10 9 7 7 5 6 7 8 8 7 7 2 4 2 4 8 5 4 5 4 4 5 5 4 5 4 6 8 8 7 10 9 7 8 10 14 16 16 17 17 15 16 17 17 16 17 19 19 20 21 20 19 19 19 18 18 18 17 16 16 15 15 17 18 17 17 18 18 17 16 17 17 15 14 11 11 12 14 15 15 15 15 15 14 13 13 13 13 12 12 12 12 12 12 12
7 8 9 9 6 4 4 6 6 8 8 8 6 3 4 3 8 7 4 5 5 4 4 4 4 4 6 9 4 4 7 6 9 8 8 10 13 17 16 16 16 16 16 16 17 17 16 18 20 19 20 19 19 18 18 19 18 18 18 17 16 16 16 16 17 17 16 16 18 19 18 17 17 17 16 15 12 10 11 13 14 14 14 15 15 13 12 12 11 12 11 11 11 12 12 11 10
8 8 8 10 6 4 5 6 7 8 9 10 6 3 5 6 6 4 5 7 6 4 3 2 3 8 7 9 8 8 6 4 7 7 9 12 15 18 16 15 15 16 17 16 17 16 16 20 20 19 20 19 18 19 19 19 18 18 18 17 16 16 16 17 17 17 16 15 17 17 18 17 17 17 16 16 14 11 12 13 13 12 12 12 11 11 11 11 10 11 10 10 11 11 10 10 9
9 7 6 8 5 3 7 8 8 8 6 7 5 3 4 5 4 3 7 8 7 5 2 2 4 8 7 6 8 10 8 6 7 7 9 14 16 16 16 14 15 16 17 17 17 17 18 21 21 20 20 19 19 19 19 19 18 18 18 17 16 17 17 18 18 17 16 15 16 16 17 16 17 17 16 16 14 13 13 13 12 11 10 9 9 10 11 11 10 10 10 10 10 10 10 9 8
10 7 4 6 6 4 7 8 9 9 2 2 4 3 4 4 3 4 6 7 8 9 5 5 5 4 7 5 6 8 8 10 10 11 13 15 15 15 15 14 16 16 16 18 18 19 20 21 20 20 20 20 20 19 19 19 18 18 18 17 17 18 18 18 18 17 17 16 16 16 16 16 17 16 16 16 14 14 13 12 11 10 9 8 9 11 12 12 11 10 11 10 10 9 9 9 8
10 7 3 5 7 6 7 9 9 9 3 2 4 3 0 1 4 5 6 5 5 8 8 7 5 3 9 10 8 8 7 11 13 14 14 14 15 14 14 13 15 16 16 19 20 20 19 20 21 20 21 20 20 19 19 19 18 18 17 17 18 18 18 19 18 18 18 17 16 17 18 16 16 15 16 17 15 14 13 11 10 8 7 8 10 11 12 12 12 11 11 11 10 9 8 8 8
8 6 4 4 7 7 7 8 7 7 4 2 4 5 4 5 5 7 7 6 7 7 8 6 4 4 11 11 8 7 7 10 11 13 13 12 14 13 13 13 14 17 18 20 20 20 19 20 21 20 20 20 19 19 19 19 18 18 17 18 19 18 18 19 18 17 17 16 15 16 18 17 15 15 16 16 16 14 12 11 9 7 7 9 11 11 12 12 12 11 11 10 10 9 8 8 7
6 5 5 6 7 7 7 7 7 5 3 3 5 5 4 4 6 8 7 6 9 8 9 5 5 7 11 10 6 7 8 9 10 12 12 12 12 12 13 13 14 17 19 20 19 20 20 19 20 20 20 19 19 18 18 18 18 17 17 18 19 19 19 19 18 18 17 15 15 16 18 18 16 14 14 15 14 13 12 10 8 6 8 11 11 11 11 11 11 10 10 10 9 9 8 7 7
6 5 5 6 7 7 6 5 5 4 5 6 7 6 3 5 7 9 8 7 8 8 8 6 5 8 8 9 5 7 9 8 10 11 11 12 11 11 12 13 14 16 18 19 19 20 21 20 19 19 19 19 18 18 18 17 17 17 17 18 19 20 20 19 19 18 18 17 16 16 17 17 15 14 13 13 13 13 12 9 8 7 10 12 11 11 11 10 10 10 9 9 9 9 8 7 6
7 5 6 6 7 6 4 4 2 2 4 6 5 5 4 7 8 9 9 8 9 9 7 4 5 7 7 8 6 7 9 8 10 10 10 11 11 11 12 13 15 16 16 18 18 20 20 19 19 17 17 18 17 17 17 17 17 17 17 18 18 19 20 20 20 19 18 17 16 15 15 14 13 12 11 11 11 11 11 10 8 8 11 12 10 10 9 9 9 9 9 9 9 8 8 7 7
7 4 5 6 6 5 5 6 4 4 4 6 6 4 6 6 7 8 9 10 9 7 8 5 4 8 8 7 6 6 8 10 10 10 10 10 11 11 13 14 14 14 14 16 18 19 19 18 18 17 17 16 15 15 15 16 17 17 17 18 18 18 19 20 20 18 17 16 15 15 13 11 11 10 9 10 10 10 10 10 10 9 12 12 10 9 8 8 8 8 8 8 8 8 8 8 7
6 3 5 7 5 5 7 7 5 8 4 7 5 5 7 3 4 7 7 8 9 8 8 5 2 4 7 7 6 8 11 13 12 10 10 10 11 11 13 14 13 13 13 15 16 18 18 18 18 17 17 16 15 14 13 14 16 16 17 17 17 17 18 19 19 18 17 15 14 14 13 11 10 9 8 8 9 10 10 11 11 10 12 12 10 9 7 7 7 7 8 8 8 8 7 8 8
5 4 5 6 6 6 8 6 6 7 4 6 6 6 8 6 5 4 4 5 9 6 4 5 3 1 3 6 10 15 16 15 13 11 10 10 10 12 13 13 13 13 12 13 14 15 16 17 18 17 16 16 15 14 13 12 14 15 16 17 17 17 17 18 19 19 17 16 14 14 14 12 11 9 8 8 8 8 10 11 11 12 12 12 11 9 7 6 6 7 8 8 8 8 8 9 9
4 6 6 6 7 6 6 7 4 2 6 7 8 8 9 10 5 2 6 5 9 7 4 7 4 3 6 12 18 20 19 16 13 12 10 9 10 11 12 12 13 12 11 12 13 14 14 14 15 15 15 15 13 13 13 11 12 14 14 15 17 17 17 17 18 18 16 15 14 15 15 13 11 10 10 9 8 8 10 12 11 12 13 13 12 10 8 6 6 7 8 8 8 8 9 10 9
5 6 7 6 7 5 5 5 2 5 7 6 8 6 6 11 8 6 8 7 9 9 8 8 7 8 12 19 21 21 19 17 14 12 10 8 9 10 10 11 11 11 12 11 12 14 13 13 12 13 16 15 12 12 15 13 11 12 12 13 15 16 17 16 17 16 15 15 15 16 15 13 10 10 12 11 9 9 10 11 11 12 14 14 13 11 9 8 7 7 8 9 8 9 10 9 8
7 6 5 7 5 2 4 5 5 5 5 4 7 4 4 10 10 7 9 9 10 9 10 9 9 11 14 19 19 19 18 16 13 11 10 8 8 9 8 9 10 11 12 11 12 13 13 13 12 14 15 14 14 14 16 15 12 13 13 13 14 15 16 16 16 16 15 15 15 14 13 13 11 11 13 11 10 9 9 10 11 12 15 16 14 12 10 8 8 8 9 9 9 9 9 8 6
8 7 6 7 2 6 6 5 6 5 4 3 5 4 4 8 8 8 8 9 11 10 9 8 10 11 13 16 16 17 16 14 13 11 9 8 7 7 7 9 9 10 12 12 11 12 12 11 11 13 14 14 14 13 15 16 15 15 14 14 14 15 15 16 16 15 14 13 14 14 13 13 12 11 12 11 11 9 7 9 10 12 15 16 15 13 10 9 8 8 10 10 9 8 7 7 7
6 8 8 2 3 4 6 5 5 4 2 2 4 7 6 7 4 6 8 9 9 9 9 8 11 13 13 13 13 15 14 13 11 10 8 8 8 6 6 6 7 8 10 11 11 12 12 11 11 11 13 13 12 12 12 15 17 17 16 15 13 15 16 15 13 12 12 13 14 15 13 12 11 11 12 11 12 10 8 9 10 12 14 16 15 12 11 10 10 10 11 12 9 7 7 7 7
5 9 10 3 1 6 8 7 5 3 1 2 4 6 7 7 5 7 9 7 5 8 8 9 12 13 14 13 12 12 12 11 10 9 8 8 9 7 6 5 6 7 8 10 11 12 12 11 10 9 11 12 10 10 10 12 16 16 16 16 13 15 16 15 13 11 12 13 13 14 12 11 10 10 11 12 12 11 11 11 10 12 13 16 16 12 12 12 12 12 12 13 11 8 8 7 7
6 9 9 3 5 6 8 8 5 3 2 2 2 3 5 8 8 6 4 3 5 9 8 9 12 12 15 14 12 12 11 10 9 9 9 9 9 7 7 5 5 5 6 9 10 11 11 10 10 9 10 11 10 10 10 11 14 14 15 14 12 12 12 13 13 11 10 11 12 12 11 12 11 9 10 11 11 9 11 12 11 12 13 15 15 12 12 12 12 12 12 12 11 9 8 8 7
9 8 9 7 7 5 6 7 6 5 2 2 1 4 6 7 9 6 4 7 6 8 8 10 12 11 14 13 12 12 11 10 9 9 9 8 8 7 7 6 7 5 5 9 8 8 9 9 11 9 9 11 10 9 9 11 12 11 10 11 10 9 9 10 10 10 8 7 11 11 10 11 9 7 9 9 10 10 10 12 13 13 13 13 14 12 12 12 12 12 12 12 11 10 9 8 8
12 9 6 8 8 6 6 6 7 6 3 3 5 8 7 4 8 9 7 8 7 7 9 10 11 11 12 13 12 11 10 10 10 10 9 8 8 8 9 11 13 12 10 8 5 4 6 7 9 10 9 10 10 10 10 11 11 8 7 9 8 7 8 9 10 9 7 4 8 9 8 8 6 6 8 7 9 12 11 11 12 12 12 11 12 12 11 12 12 11 11 12 11 9 9 8 8
11 12 6 7 9 9 8 8 9 7 5 6 8 8 6 5 7 9 8 7 7 8 10 11 11 12 11 11 12 10 10 9 10 10 9 9 8 10 12 13 11 9 7 4 3 4 5 5 7 9 8 7 9 11 11 11 11 9 8 8 7 7 7 9 9 7 6 6 5 6 6 6 6 7 9 8 9 11 11 11 10 11 11 10 11 11 11 11 11 12 12 12 11 10 9 8 8
7 13 9 7 9 10 10 10 11 8 6 8 9 9 9 8 7 5 9 7 7 9 10 10 10 11 11 10 10 9 10 9 9 11 9 7 9 12 11 7 6 5 4 3 3 3 3 4 5 7 7 7 7 7 7 8 9 9 9 8 8 6 7 8 7 5 6 7 5 5 6 5 4 5 8 9 9 9 11 10 10 12 11 10 10 10 10 11 11 11 12 12 11 10 9 9 8
3 11 10 9 9 10 12 11 11 9 9 10 10 10 11 10 6 4 10 8 8 11 10 10 10 12 11 10 9 8 9 8 8 11 9 8 10 12 9 5 3 4 4 3 3 3 3 4 5 4 5 6 6 4 4 4 5 6 6 5 5 4 7 8 6 5 6 5 5 5 4 4 4 5 8 10 9 9 11 10 12 14 10 10 10 10 10 10 10 11 12 12 11 10 9 9 9
4 9 10 11 10 10 13 12 11 11 11 13 11 9 11 11 8 8 9 6 7 11 11 9 10 11 11 10 9 8 9 8 8 11 12 11 12 11 8 5 3 3 4 3 3 4 4 5 5 3 2 3 4 4 2 2 1 1 1 3 3 4 6 6 4 5 4 4 5 4 3 4 5 6 8 9 10 9 10 11 14 15 10 9 9 9 10 10 10 11 11 12 11 11 10 9 9
6 9 10 10 10 11 15 14 14 13 10 14 12 7 10 11 11 9 7 6 6 9 10 10 9 10 10 9 9 9 9 9 10 14 16 13 13 12 8 6 5 4 4 4 4 4 4 5 5 3 2 3 3 4 4 2 1 1 2 3 4 4 5 4 3 4 4 4 5 4 5 5 6 8 8 9 11 11 10 12 15 16 11 8 8 9 10 11 11 11 12 12 12 12 11 11 11
8 9 9 8 8 10 17 16 15 14 10 14 14 8 9 12 12 10 8 8 7 8 9 9 9 10 9 8 9 9 9 10 12 15 17 14 12 10 6 6 7 5 4 5 5 4 3 3 4 4 4 4 3 3 3 3 2 2 2 3 4 4 4 4 4 4 4 4 4 4 5 6 8 10 10 11 13 12 12 14 14 14 12 8 7 9 10 11 11 11 12 13 13 12 12 12 12
9 9 8 8 8 10 18 17 16 15 11 15 16 7 8 11 11 11 9 9 9 9 10 10 9 10 8 8 8 8 9 11 12 14 15 14 11 9 7 5 6 5 5 5 6 4 4 3 2 3 3 3 3 3 2 2 2 2 2 2 4 5 5 5 5 4 4 3 3 3 5 7 8 8 9 11 13 13 14 16 16 14 11 9 10 8 8 11 11 12 13 13 13 12 13 13 13
9 9 8 9 11 11 15 16 17 17 13 16 18 7 8 8 10 10 9 10 10 9 10 11 10 9 8 8 8 8 9 10 11 12 13 12 11 10 9 8 7 6 5 5 5 5 4 3 2 3 3 2 2 2 3 3 2 2 2 3 5 5 6 6 5 5 5 4 3 3 5 8 8 7 9 10 12 14 16 17 17 15 12 12 13 9 9 11 11 13 13 13 13 13 13 14 13
8 9 8 10 13 11 13 15 17 18 14 16 19 7 8 8 9 9 9 10 11 9 10 10 9 8 7 8 8 9 9 9 10 11 11 11 12 12 10 10 9 6 6 5 5 4 4 3 2 2 2 3 2 2 3 3 3 3 2 3 6 7 7 7 6 6 6 5 5 5 6 8 8 9 10 10 12 14 15 16 17 15 14 14 15 13 13 13 13 14 13 14 14 12 14 15 15
9 11 8 9 12 12 14 14 16 18 14 16 18 8 10 9 9 8 7 9 10 8 9 10 9 8 7 7 8 9 10 10 10 11 11 10 12 12 10 9 8 6 5 5 5 4 3 3 2 2 2 3 3 3 3 3 4 3 3 3 6 8 8 8 7 8 8 7 7 6 7 8 9 10 11 11 11 13 14 16 17 17 16 15 16 15 15 15 14 14 13 14 14 12 12 14 17
13 13 10 9 11 11 13 14 17 18 14 16 17 11 11 10 9 8 7 7 8 7 6 7 7 6 6 6 8 10 10 9 11 11 11 11 10 10 9 8 7 6 5 5 6 5 4 3 2 1 2 3 3 4 4 4 4 4 4 5 8 9 8 8 8 8 10 9 8 8 8 9 9 10 12 12 12 12 12 15 16 17 17 15 16 17 16 15 15 16 16 15 16 15 11 12 17
13 14 11 10 11 10 12 16 19 18 13 14 16 13 11 10 10 10 9 8 8 9 8 7 7 5 5 7 7 9 10 9 11 11 10 11 9 8 9 8 7 7 6 6 7 6 5 4 3 1 0 2 3 4 4 5 6 5 5 6 9 10 9 9 8 9 11 11 10 10 10 10 11 11 12 12 12 12 12 13 14 15 16 15 17 20 19 17 17 18 18 16 16 19 16 14 17
10 13 11 10 11 9 11 14 18 19 14 11 14 14 11 10 10 10 10 11 9 9 9 8 8 8 8 10 9 10 11 10 12 14 13 13 11 10 11 11 10 10 8 6 8 7 5 4 3 3 2 0 1 3 4 6 6 5 5 5 7 10 9 9 10 10 10 12 12 11 12 12 12 13 12 13 13 13 13 14 13 14 15 16 17 18 18 19 20 19 19 17 16 19 20 16 17
9 10 10 9 11 9 10 12 16 16 11 8 13 12 10 10 11 11 11 12 11 11 11 10 11 11 11 12 11 11 12 11 12 15 16 18 18 17 16 15 14 15 14 12 9 7 5 4 2 2 2 0 1 2 3 3 4 5 6 5 6 8 9 10 11 10 10 13 14 13 13 13 13 13 13 14 15 14 14 15 14 14 16 18 18 16 16 19 21 20 20 19 17 18 19 17 18
9 10 10 9 13 12 9 11 13 10 8 10 13 11 8 10 10 11 12 12 12 12 12 11 11 12 12 12 12 11 11 12 12 13 14 16 17 18 17 16 15 15 15 15 14 11 9 7 3 1 1 1 1 2 4 4 4 4 5 6 7 8 10 11 11 11 11 13 14 13 13 14 14 14 15 16 16 16 15 16 16 15 16 19 19 17 18 19 21 22 23 22 20 18 19 19 20
10 12 10 10 14 13 10 12 13 11 10 13 14 9 7 9 10 9 10 12 13 12 11 11 11 11 11 12 12 12 12 11 12 12 12 14 15 16 16 16 15 15 14 13 13 12 11 10 8 5 3 3 3 4 5 5 5 4 5 6 6 7 9 9 9 10 11 13 15 14 12 14 15 14 15 16 16 16 16 16 16 16 17 18 18 18 18 19 20 22 24 25 24 22 20 19 18
10 12 13 12 12 14 14 16 14 11 10 13 15 9 7 11 11 10 9 9 11 10 10 10 10 10 10 10 10 11 11 11 12 11 11 12 14 15 15 16 15 14 13 12 11 11 11 10 11 9 6 6 5 5 6 6 5 5 6 6 6 6 7 7 8 10 12 13 14 13 12 13 14 15 15 15 15 16 16 16 16 16 17 18 19 18 18 19 19 20 24 27 26 24 21 17 17
8 12 15 14 12 14 16 18 14 9 9 13 15 10 6 10 11 11 10 10 10 9 9 9 9 9 9 9 9 9 10 10 10 10 11 12 13 13 14 14 13 13 12 11 11 11 11 11 11 11 8 7 8 8 9 8 7 6 6 7 7 7 7 10 11 13 14 13 12 13 13 14 14 15 16 16 15 15 16 16 15 16 18 18 17 17 18 20 20 19 24 28 27 25 23 20 19
7 12 14 12 11 13 15 16 13 8 8 13 16 14 7 7 10 13 13 11 11 9 8 9 8 9 9 9 9 9 9 9 9 9 10 12 12 12 12 12 12 12 11 11 11 11 11 11 11 10 9 8 9 11 11 10 10 8 7 8 9 9 11 13 13 15 15 13 12 13 14 14 14 15 16 16 16 16 17 16 15 17 18 18 16 17 17 18 19 20 23 26 27 28 26 25 23
8 13 15 11 10 13 14 13 11 9 9 10 14 16 9 6 10 13 13 11 10 10 9 8 8 9 9 9 9 9 9 9 9 9 10 11 12 12 12 11 11 11 11 11 10 10 10 10 10 10 9 9 9 10 11 11 12 11 10 8 8 10 12 12 12 13 14 13 14 14 13 13 13 14 16 16 16 16 17 16 16 17 19 19 17 18 18 16 17 20 23 25 27 29 27 26 25
12 15 16 11 8 10 12 12 10 10 10 9 13 15 10 6 9 11 12 12 11 9 8 8 8 9 9 9 8 9 8 8 8 9 10 11 11 11 11 11 11 11 10 10 10 10 10 9 9 10 10 9 9 10 10 11 12 12 11 11 10 10 11 10 10 11 13 14 15 14 13 13 13 14 16 16 16 17 17 17 17 17 18 18 18 17 17 16 18 20 22 25 26 27 25 26 26
15 12 14 12 9 8 9 9 9 9 10 12 15 17 13 7 7 10 9 8 11 10 9 8 9 9 9 8 8 8 8 7 7 8 10 11 11 10 10 10 10 10 10 10 10 10 9 9 9 10 10 10 10 10 10 10 11 11 11 12 13 12 11 10 11 11 12 13 14 14 13 14 14 14 15 16 16 17 18 17 17 17 17 18 17 17 16 16 18 19 21 25 27 26 23 23 25
13 9 12 11 9 8 7 7 8 9 10 12 14 17 17 9 5 8 6 9 13 11 9 9 10 9 9 8 7 7 7 7 7 7 8 9 10 10 10 10 10 10 11 10 10 9 9 10 10 10 10 11 11 11 11 10 10 10 11 12 13 14 14 12 11 11 12 13 15 16 14 14 14 14 15 16 17 17 17 18 18 18 19 19 18 17 16 17 17 17 19 24 26 25 23 20 20
10 10 12 11 9 8 8 8 9 8 9 10 14 18 14 3 3 9 11 12 13 11 10 10 9 9 9 8 7 7 6 7 7 6 7 8 9 9 10 10 9 10 11 10 10 10 9 10 10 11 11 11 12 11 11 11 10 10 11 12 13 14 14 14 14 13 12 12 14 15 14 13 14 14 15 17 17 17 17 19 19 19 21 20 19 18 17 16 17 17 18 21 24 23 23 21 18
12 11 12 11 9 9 9 9 9 9 9 8 12 15 9 5 5 9 12 12 12 12 11 10 9 9 9 8 7 7 6 6 6 6 7 8 9 10 9 10 10 10 11 10 10 10 9 9 10 11 11 11 12 12 11 11 11 11 11 12 13 13 13 14 14 14 13 13 14 15 15 15 14 15 17 18 18 17 18 20 21 20 20 19 19 18 17 17 17 18 18 19 22 22 22 22 20
12 12 11 10 9 8 9 9 8 10 9 6 9 9 5 6 7 9 11 12 12 11 11 10 9 9 8 7 7 6 6 6 6 7 8 9 11 10 10 10 10 11 11 11 11 11 11 11 11 12 12 12 12 12 12 12 11 11 12 12 12 13 14 14 13 14 14 14 15 15 16 17 15 16 17 18 18 17 17 19 19 18 19 18 17 17 18 18 17 18 18 18 20 21 21 22 20
11 12 11 11 10 8 7 5 3 5 8 8 6 2 4 6 9 10 11 12 12 11 11 10 9 9 8 7 7 6 7 6 7 7 8 10 11 11 11 11 12 12 12 12 12 12 12 11 12 12 12 12 13 12 12 12 12 12 12 12 13 13 14 14 14 15 16 15 15 16 17 18 17 16 17 17 18 19 18 19 19 19 20 19 19 20 20 20 19 19 18 18 20 21 21 21 18
9 11 12 11 12 10 7 4 0 3 8 8 7 5 6 7 8 10 11 12 12 12 11 10 9 9 9 8 7 7 7 7 7 7 8 10 11 11 11 11 12 12 12 12 12 11 11 11 12 12 13 13 13 13 12 12 13 13 12 12 13 14 14 14 15 16 17 17 17 18 18 19 19 18 17 16 18 21 21 20 22 23 22 20 20 22 23 21 21 21 19 18 19 19 19 19 17
9 10 12 10 11 11 7 7 6 6 8 7 8 9 9 7 6 10 14 13 12 11 10 10 10 10 9 8 7 7 7 7 7 8 8 10 11 11 11 11 12 12 11 11 11 11 11 11 12 12 13 15 15 14 13 12 13 12 12 13 14 14 14 14 15 16 17 17 18 19 18 18 19 19 19 17 17 20 23 22 21 23 24 24 24 24 24 23 21 20 19 18 18 19 18 17 18
13 10 12 10 10 10 9 8 9 9 9 7 9 11 10 8 7 12 15 14 13 12 11 11 10 10 9 8 8 8 7 6 7 7 8 9 10 11 11 11 12 12 12 11 11 12 12 12 12 13 14 15 15 15 14 14 13 12 13 14 15 15 15 15 15 16 17 17 18 19 19 19 19 19 19 19 17 20 24 25 24 23 25 26 26 23 22 22 22 20 19 18 17 18 18 17 17
15 10 12 11 8 9 9 7 7 9 10 8 9 10 7 4 8 14 15 14 14 12 11 10 10 9 8 8 8 7 7 6 7 7 7 9 10 11 11 12 12 12 12 12 12 12 12 12 13 14 15 15 15 15 15 15 15 14 15 16 15 15 16 16 17 18 18 17 18 19 20 21 20 19 20 20 20 21 23 26 27 26 25 26 26 25 22 20 19 19 18 18 18 18 18 17 16
11 9 11 11 8 8 8 8 7 8 8 8 8 8 3 4 5 12 15 14 13 12 12 10 9 9 9 8 8 7 7 7 7 7 7 9 10 11 12 12 12 13 13 13 13 14 14 14 14 15 16 16 16 16 16 16 16 16 17 17 17 16 16 17 18 19 18 17 18 19 20 22 22 21 20 19 21 23 24 26 27 27 25 24 25 24 21 20 19 19 19 18 17 18 17 16 15
12 9 10 11 10 9 9 9 10 9 7 9 8 5 4 4 1 8 14 13 11 12 12 11 10 10 10 9 8 8 8 8 8 8 8 10 11 11 12 13 13 13 14 14 14 15 15 15 14 15 16 16 16 16 16 17 17 18 19 18 18 17 17 18 19 19 19 19 20 20 20 22 22 22 21 19 22 25 26 26 24 23 22 20 20 20 21 22 21 21 22 20 16 16 17 17 16
Wind_Direction
267 260 253 250 250 255 248 232 253 223 231 257 259 271 270 190 48 281 248 195 190 108 71 66 78 22 340 11 80 66 44 31 21 1 63 101 129 131 131 129 131 134 134 138 140 142 142 147 149 150 152 150 148 145 145 147 147 147 146 145 142 137 135 134 133 127 125 129 124 119 115 115 118 116 114 112 106 103 106 108 110 110 111 110 108 106 105 105 104 104 103 102 101 101 102 102 100
256 243 241 244 244 248 248 211 255 247 234 251 250 258 217 103 210 238 247 75 69 83 93 93 93 55 25 58 85 70 49 44 58 70 82 115 130 126 132 133 134 134 133 137 140 141 137 144 151 152 153 152 150 146 146 146 146 146 144 144 140 136 136 136 137 133 133 134 127 125 120 114 116 116 117 117 109 106 108 110 111 112 112 110 108 106 104 104 103 103 102 102 103 102 103 104 102
249 241 232 231 234 238 262 229 244 257 250 256 260 263 127 125 221 137 72 62 81 104 119 109 101 49 333 125 65 63 63 53 73 89 107 137 140 133 140 134 135 133 130 136 142 143 139 147 154 155 155 155 152 149 147 147 146 144 144 144 139 138 139 140 140 137 138 139 134 133 130 122 121 119 119 118 113 108 110 112 112 113 112 110 107 104 103 103 103 103 103 105 106 104 105 105 103
237 246 241 241 230 221 243 236 235 256 260 261 268 35 91 211 101 97 83 83 108 144 155 138 109 30 353 65 73 82 86 67 77 96 114 132 133 135 141 135 135 133 131 140 145 143 144 155 158 157 156 156 153 151 148 147 145 143 144 142 140 142 143 143 140 139 140 141 139 137 134 129 127 126 124 120 116 110 112 115 114 113 111 109 106 102 101 101 103 104 105 107 107 106 106 106 105
239 242 242 252 248 238 244 240 240 245 253 266 275 86 114 124 99 102 117 131 144 152 147 153 121 89 51 48 51 85 94 92 81 85 94 99 118 133 139 136 136 136 136 140 143 138 143 158 160 159 158 156 153 150 148 146 145 145 145 144 146 147 146 144 141 141 141 141 140 138 138 136 133 132 130 129 125 115 115 118 115 114 114 115 113 110 109 108 110 108 107 110 110 111 111 109 103
236 230 226 248 267 302 263 243 239 239 248 258 283 62 96 87 95 118 138 152 148 128 117 145 117 119 96 59 53 55 68 106 96 87 103 116 129 136 140 141 138 135 135 138 142 136 145 160 161 160 160 158 154 151 150 148 148 148 148 149 150 150 147 146 145 144 145 145 143 143 145 143 140 140 139 136 134 129 125 124 118 113 116 122 123 115 111 114 114 111 113 114 115 119 117 110 101
235 226 204 232 246 254 247 245 244 246 233 237 275 65 114 104 117 171 160 164 161 158 125 101 125 118 113 101 82 60 44 66 104 102 112 131 137 140 141 140 136 133 137 140 139 138 152 162 162 163 161 160 157 154 153 152 152 152 153 153 152 150 148 147 147 146 148 147 144 146 149 151 148 146 145 143 141 140 136 134 129 124 124 125 124 111 107 111 112 112 116 117 117 121 117 107 98
240 239 215 232 233 207 236 245 247 252 144 160 269 72 85 98 146 207 174 173 174 168 150 138 172 134 107 108 85 75 56 64 94 105 117 134 140 143 141 138 136 136 139 139 137 141 155 162 163 164 162 161 160 159 157 157 157 156 156 155 154 150 149 149 149 151 152 149 148 151 154 157 152 147 149 150 149 146 144 145 143 140 138 127 123 115 111 115 114 113 113 112 112 113 111 103 96
230 233 237 243 245 220 234 244 240 248 213 168 219 173 83 171 188 215 188 170 162 161 155 148 186 166 110 100 91 99 80 81 98 110 124 136 141 144 140 140 138 136 134 134 136 141 149 159 163 163 163 163 163 163 161 161 159 158 157 156 153 149 149 148 147 151 151 150 154 159 162 160 154 151 152 156 158 154 150 149 149 147 146 133 124 115 113 118 115 112 110 107 106 106 105 100 97
217 223 245 240 250 239 237 241 230 239 225 178 193 187 194 203 197 204 201 163 159 155 130 133 180 151 113 101 102 106 91 101 111 116 126 135 140 141 138 139 136 136 133 132 136 139 145 158 164 162 163 164 164 164 163 162 160 159 158 156 152 149 148 145 146 147 146 145 145 152 161 163 159 155 154 160 165 164 160 158 156 147 147 139 123 110 111 117 116 114 110 105 102 100 100 95 95
218 210 250 247 242 243 242 233 216 208 158 169 193 176 164 200 204 198 205 165 162 143 125 164 168 131 113 101 97 98 104 120 120 122 134 136 135 136 135 137 136 136 133 134 136 139 145 156 163 165 165 164 163 164 162 160 159 160 158 156 154 153 151 150 151 148 148 149 147 149 157 165 165 162 159 163 167 170 168 164 159 145 144 139 120 108 110 115 118 117 110 104 97 91 91 91 93
236 202 223 243 238 236 247 247 213 162 139 189 182 149 153 196 200 190 194 168 153 139 147 188 140 130 124 106 101 112 125 133 127 133 139 135 134 135 133 133 134 132 132 135 136 142 148 153 160 164 165 164 163 163 160 158 159 160 159 158 157 157 156 155 154 151 156 161 159 156 158 163 165 166 168 170 170 172 173 164 159 155 149 139 121 111 110 115 121 120 113 102 92 85 84 84 91
243 225 220 234 248 248 257 258 222 147 176 184 133 118 176 190 193 187 184 163 154 155 145 144 127 127 109 102 117 132 141 140 135 142 140 136 135 133 130 128 130 131 134 136 139 145 149 153 157 161 165 163 162 163 161 160 161 162 162 163 161 160 160 159 156 157 163 167 166 162 159 160 160 163 169 178 174 169 175 168 161 164 157 143 124 115 111 116 124 124 118 104 92 84 81 82 90
239 247 248 245 247 255 264 247 210 211 192 134 104 142 189 190 193 183 176 163 149 132 105 101 131 120 114 126 139 145 149 146 145 145 143 138 132 132 129 127 130 135 137 138 143 147 150 154 154 157 161 159 160 162 162 164 165 165 167 167 167 165 164 163 160 163 166 167 167 163 159 156 156 156 159 176 173 166 173 171 167 169 162 148 131 123 117 120 127 130 121 108 97 86 84 86 94
247 259 257 259 249 235 239 245 226 215 165 116 144 176 178 166 199 186 172 159 117 94 101 91 71 123 150 163 148 143 146 151 153 150 146 139 134 134 129 129 132 134 137 141 145 149 152 153 153 156 157 157 159 158 163 170 169 169 171 172 173 170 169 168 166 169 170 168 167 164 162 157 155 153 151 162 170 172 172 172 173 173 167 153 141 134 129 129 133 136 127 113 101 90 88 91 100
252 259 239 251 249 230 210 216 234 219 125 115 155 173 173 150 204 188 91 106 106 116 134 96 65 51 147 134 121 127 138 148 153 149 144 140 140 137 132 134 133 131 138 146 148 150 153 155 155 153 154 159 160 156 156 168 175 175 176 177 178 176 174 173 173 176 175 173 170 171 170 159 156 157 153 152 162 172 167 172 179 177 172 159 150 147 141 144 146 145 138 124 107 98 94 97 103
237 251 238 235 238 230 187 183 210 165 104 124 152 182 178 146 184 127 91 121 128 142 112 85 85 53 77 96 109 122 133 141 145 145 143 143 142 141 138 140 139 137 146 156 157 152 155 159 154 149 155 160 155 152 152 164 180 178 179 182 183 182 181 178 178 181 179 177 175 178 176 164 159 157 157 156 158 168 169 178 184 178 174 166 159 156 153 156 160 157 149 135 118 107 100 98 101
217 235 232 227 231 215 170 161 128 83 100 120 144 193 186 149 160 141 153 153 134 142 118 103 95 86 92 98 111 123 130 136 142 144 144 149 149 150 145 144 149 148 155 165 166 160 159 158 154 152 159 162 152 151 156 165 178 174 180 186 186 188 187 183 180 181 179 180 180 181 180 172 165 160 162 164 161 169 182 191 191 182 174 169 166 163 163 164 170 170 158 146 130 111 101 101 100
220 233 226 230 233 138 89 76 56 60 80 97 133 194 212 153 154 165 175 150 148 149 125 129 113 105 107 108 117 123 128 137 143 146 147 151 150 151 150 153 154 151 160 169 167 163 159 159 160 155 157 165 158 159 161 161 169 176 185 186 186 192 191 190 188 185 180 180 180 180 187 182 172 168 166 164 162 168 188 198 197 190 175 169 168 166 168 172 175 177 169 157 134 110 111 127 128
228 235 231 232 199 93 89 74 62 60 50 65 129 181 200 140 152 189 175 151 169 154 135 153 129 122 119 117 124 124 132 140 143 150 152 147 135 140 148 157 158 156 163 167 166 160 157 161 165 160 162 167 160 165 166 159 169 178 189 190 188 194 194 198 199 192 181 178 179 181 194 189 177 175 166 157 159 168 187 197 199 193 179 171 166 163 169 176 177 180 179 164 143 134 148 159 149
221 222 238 253 89 132 146 128 89 78 20 42 130 174 167 124 156 197 164 164 181 148 147 163 137 133 130 129 129 128 138 142 149 155 152 139 122 127 131 139 146 146 152 157 160 158 160 159 160 164 164 165 161 164 164 164 177 182 190 194 191 196 199 200 203 202 187 181 187 190 197 193 184 180 166 158 161 169 180 187 193 186 179 173 163 164 174 176 178 182 183 176 172 180 180 169 155
228 223 252 357 111 191 148 137 111 116 203 126 160 170 146 137 176 202 176 179 177 137 145 145 135 136 137 139 132 134 144 145 154 152 143 132 121 122 118 117 118 124 144 156 156 152 156 154 156 166 160 165 162 154 158 171 185 192 193 194 196 200 206 205 204 211 197 187 194 197 200 197 192 182 174 177 173 173 182 187 194 185 179 176 168 174 180 178 183 184 186 188 193 195 180 169 164
238 220 243 280 221 198 139 146 134 156 191 138 169 117 137 160 165 199 180 99 81 113 125 123 123 129 135 138 137 143 146 147 157 146 135 130 125 115 103 95 92 119 147 141 139 140 147 148 154 168 163 165 158 153 164 172 186 199 196 196 206 204 213 219 213 218 208 194 195 199 206 203 199 188 181 192 185 183 195 195 202 193 180 180 180 184 181 182 190 187 189 197 200 194 180 174 170
240 229 212 211 217 193 151 159 147 172 182 109 140 144 179 179 158 177 124 93 90 102 111 112 114 125 133 133 136 142 143 149 148 131 127 122 115 103 93 78 62 47 56 81 98 124 139 146 155 162 157 154 149 156 165 171 188 198 196 204 218 213 216 226 224 229 228 203 190 195 209 206 206 203 189 195 194 198 211 206 209 202 182 180 185 187 186 187 195 192 193 202 204 193 181 176 171
232 244 205 188 205 195 177 175 166 182 177 143 163 168 179 160 155 162 125 111 117 119 120 115 118 128 131 129 132 137 140 141 135 127 120 112 109 94 72 52 45 36 33 55 75 102 114 131 148 146 145 149 150 164 167 174 187 185 196 212 221 225 220 227 233 233 236 204 177 185 206 204 209 223 209 208 211 210 210 206 216 214 189 182 186 189 195 193 196 198 197 204 204 194 182 177 175
214 230 227 179 194 194 190 187 180 188 177 159 168 169 145 124 160 152 123 115 126 140 131 125 133 128 123 126 129 135 134 130 131 124 108 108 107 80 58 49 56 54 38 48 68 76 91 118 140 134 141 152 155 173 174 171 180 181 192 207 213 224 228 236 244 235 231 223 192 188 196 192 192 209 212 216 223 221 213 205 220 226 199 185 190 194 201 199 199 200 202 206 203 195 185 179 180
193 217 226 196 197 186 191 192 184 191 172 170 184 169 142 156 195 162 126 130 146 149 137 139 141 124 121 122 124 128 123 120 120 109 98 101 94 78 67 60 79 81 63 75 78 79 100 121 133 131 143 152 154 177 185 170 178 189 191 197 201 211 219 225 243 243 228 231 226 208 188 166 162 184 206 213 220 225 224 217 224 232 209 189 195 196 203 205 203 203 205 208 204 196 186 182 184
196 216 217 202 206 184 192 197 186 195 171 179 198 161 150 171 190 122 119 141 167 153 147 155 141 122 120 116 118 117 109 108 109 108 98 82 81 83 88 92 88 72 78 100 91 103 116 103 113 134 151 155 152 165 204 191 186 194 195 207 204 214 222 217 231 224 212 228 227 217 193 149 161 192 205 211 221 231 236 239 243 241 213 194 203 197 201 206 205 206 206 208 205 199 190 185 190
217 216 215 193 207 199 195 196 189 201 175 177 199 161 167 180 141 106 116 149 179 161 157 157 139 124 121 116 113 105 103 99 88 92 84 73 83 90 97 113 118 77 86 105 99 112 118 106 116 128 131 153 151 144 191 230 231 245 319 290 232 227 236 232 233 200 191 225 210 206 192 167 191 208 205 200 211 228 242 254 261 255 225 197 203 198 200 202 206 207 202 206 206 205 197 188 194
211 209 223 191 198 205 194 195 189 195 173 170 198 188 177 169 129 123 137 152 179 174 160 152 144 128 120 120 113 102 100 88 71 78 82 80 87 97 115 137 131 105 104 123 123 118 108 109 126 130 137 175 181 162 180 211 261 298 306 283 243 235 240 242 238 197 195 214 201 201 195 203 216 209 207 202 206 218 229 241 256 262 250 216 201 199 201 201 206 208 202 205 207 207 202 193 198
212 202 228 205 197 196 186 193 185 181 165 168 205 220 172 149 135 148 154 155 178 182 164 155 146 126 119 121 116 111 99 85 75 79 88 89 89 97 115 133 125 112 105 119 122 120 112 106 120 137 165 179 191 197 193 192 191 204 226 249 253 257 252 249 244 218 213 209 200 195 192 217 217 201 205 204 207 216 223 230 240 255 263 256 230 211 206 207 208 211 207 204 204 205 205 200 202
210 200 215 209 206 187 178 187 185 182 167 174 208 217 139 138 140 153 157 163 180 184 174 160 132 121 135 132 119 113 99 89 80 78 86 93 98 103 98 94 104 99 96 112 121 126 124 118 123 139 164 172 190 216 217 215 213 214 238 267 270 270 269 267 263 252 243 228 213 199 208 234 227 208 208 204 209 217 223 229 231 239 248 253 253 239 224 223 215 213 211 207 204 202 204 204 204
206 210 207 204 210 182 170 181 188 192 171 179 211 198 118 137 136 144 159 165 179 187 176 158 133 133 149 134 122 116 105 94 81 74 80 87 97 108 107 99 98 104 107 113 123 135 136 134 147 137 152 182 204 227 240 249 253 256 269 280 278 277 277 279 281 278 271 257 242 216 221 237 237 222 212 210 216 217 221 229 233 234 229 232 241 238 235 236 230 224 214 211 211 204 207 206 205
195 210 206 208 210 174 164 178 187 198 178 181 212 190 113 134 125 133 153 162 182 183 166 158 144 140 142 134 132 122 105 93 80 73 76 85 93 99 105 104 103 109 112 114 123 143 157 150 154 152 172 191 198 232 253 259 259 261 267 273 277 279 277 281 286 286 282 271 256 239 231 234 233 225 217 213 216 221 227 230 233 233 228 233 234 229 227 226 239 243 221 215 219 212 213 205 199
190 203 205 205 203 178 174 179 182 195 184 184 204 170 121 131 114 112 132 159 182 168 154 165 156 142 140 135 128 110 92 84 79 73 75 84 94 99 106 106 111 118 117 128 137 150 171 164 164 181 207 202 197 219 235 246 249 245 251 261 269 273 276 277 280 283 283 275 263 253 246 245 241 236 232 222 217 224 229 230 234 233 230 236 235 231 228 221 238 251 228 219 224 221 226 213 201
191 199 208 200 197 186 178 179 179 187 188 189 191 158 131 133 110 98 106 143 155 120 116 141 138 145 139 112 102 98 89 78 74 73 74 80 86 95 101 99 106 117 116 129 137 144 155 151 155 189 230 226 213 216 222 234 239 231 232 239 246 253 267 275 277 279 278 275 272 268 261 256 255 251 243 237 232 227 224 231 239 237 232 235 235 231 228 223 230 234 224 220 222 219 223 222 210
194 197 210 204 203 197 179 177 174 181 195 191 178 155 134 123 107 102 100 112 123 110 102 104 107 110 89 80 80 80 75 64 62 63 69 85 96 98 99 99 105 114 125 136 130 127 133 133 125 104 253 247 225 225 229 234 236 229 223 236 248 254 266 276 274 273 274 275 276 273 270 266 263 259 252 244 241 235 231 234 237 236 233 232 235 233 230 228 225 224 223 217 217 215 211 215 215
202 197 203 201 209 196 162 163 168 183 202 180 159 154 138 119 107 103 102 99 96 95 95 94 94 82 66 73 76 69 67 60 56 52 48 57 68 73 80 82 78 77 82 101 118 126 132 132 122 107 107 134 252 239 239 243 249 248 242 247 260 267 274 277 274 271 271 273 272 265 263 264 262 258 250 245 245 243 239 237 234 234 232 230 233 234 232 231 228 225 224 214 208 213 211 209 210
209 202 203 198 204 179 141 157 173 189 203 157 149 156 138 118 109 103 102 95 85 79 78 71 73 73 66 68 73 75 74 66 58 50 42 43 46 48 52 56 54 52 52 53 63 85 95 104 125 122 111 51 336 328 289 272 272 272 269 267 265 274 279 273 268 267 265 269 269 264 263 261 260 257 251 251 253 251 247 244 241 235 234 235 233 232 234 231 228 225 224 217 208 209 212 210 206
214 210 203 198 201 183 153 166 173 183 189 165 164 162 139 126 114 104 102 101 98 90 80 70 67 69 67 63 63 67 67 62 57 51 42 41 42 43 42 44 47 47 46 40 37 40 40 42 45 33 12 303 290 297 308 314 310 288 271 264 258 263 266 261 262 263 258 263 267 265 266 264 262 262 259 258 257 256 253 250 248 240 235 236 234 233 236 232 227 225 224 220 214 211 213 214 208
217 219 213 209 196 173 156 166 172 184 186 178 177 171 162 160 143 122 111 108 108 100 87 76 69 69 69 67 63 61 62 60 58 52 43 40 41 41 39 38 42 42 39 35 32 28 24 22 17 11 358 325 293 267 285 304 307 293 268 260 256 255 257 256 264 271 262 262 265 262 260 262 263 261 261 260 257 257 258 256 254 247 238 233 229 231 234 232 228 225 222 219 219 218 215 216 213
212 219 224 219 185 165 172 172 172 187 187 182 188 188 181 179 164 145 134 114 104 96 90 82 72 68 64 63 63 61 62 62 59 55 48 44 43 41 37 36 36 35 31 28 28 25 21 19 10 3 353 337 328 304 299 302 294 279 263 258 255 256 267 269 267 271 266 262 265 265 259 259 259 255 255 256 257 259 260 258 254 248 244 236 227 227 231 229 226 221 219 220 221 221 217 215 216
207 205 221 225 192 179 179 171 173 194 191 182 194 207 181 175 177 161 147 123 110 104 97 89 74 68 65 62 63 62 62 63 61 57 52 48 45 42 39 35 33 31 27 24 26 23 20 19 10 4 355 343 340 334 328 319 302 277 260 260 259 256 268 276 267 260 262 261 262 265 259 257 257 254 251 251 254 258 255 253 250 247 247 242 231 226 227 227 227 224 224 225 223 219 216 213 213
205 182 208 232 209 187 171 171 190 201 187 180 197 218 204 174 181 164 152 134 122 126 117 101 83 75 73 68 66 67 65 64 63 58 54 51 46 45 43 39 34 31 27 26 26 23 19 15 9 5 359 350 346 342 339 331 318 302 280 263 260 261 263 265 262 263 270 271 264 259 257 258 257 254 252 250 252 252 250 249 248 248 248 243 233 227 225 226 229 229 226 224 220 217 217 216 216
215 173 193 231 217 189 175 185 205 199 196 188 196 217 218 182 176 164 165 161 142 137 130 111 96 85 79 74 73 74 71 67 66 61 58 54 48 47 44 41 37 33 29 27 26 23 19 15 10 6 1 353 347 342 339 335 330 321 307 285 268 271 271 265 262 269 275 272 266 260 257 258 257 253 250 250 249 247 247 248 247 249 247 243 238 234 230 224 225 229 225 219 215 215 216 218 219
224 177 182 218 214 186 186 200 210 205 214 202 189 211 225 188 164 168 183 184 163 141 126 114 105 95 85 80 75 74 74 70 68 65 62 58 52 48 45 43 39 35 32 29 29 28 23 19 14 10 6 357 348 345 340 336 334 325 314 307 295 286 281 274 271 269 265 264 265 263 259 258 258 255 251 249 247 244 244 246 247 248 246 243 241 239 235 226 225 225 219 214 212 214 215 217 220
230 183 178 206 206 197 204 212 217 215 223 208 190 203 219 207 169 180 197 179 155 141 129 121 109 98 88 82 75 72 75 70 65 61 59 58 52 48 44 42 39 34 32 29 28 27 24 21 15 11 11 4 357 353 346 337 330 324 320 314 306 302 298 287 278 273 271 273 274 272 264 258 257 256 254 252 247 244 243 244 245 244 244 242 238 235 232 227 225 220 214 211 209 210 211 215 219
224 190 189 199 194 203 210 213 221 226 227 208 193 202 212 219 193 170 142 118 126 133 135 124 110 100 88 82 75 70 70 68 64 57 53 51 47 43 38 36 34 29 27 24 23 21 18 17 13 11 10 6 2 358 352 344 334 328 327 321 313 312 312 306 294 284 281 280 278 277 271 262 258 256 255 256 252 246 242 241 242 242 243 241 234 231 228 222 219 214 212 210 207 207 210 210 215
199 189 201 196 185 196 202 206 211 224 234 212 202 208 205 178 108 129 114 106 112 117 121 115 109 103 92 87 82 74 69 64 61 54 52 48 41 37 31 29 28 25 21 17 16 14 10 10 9 7 5 3 1 358 355 350 342 336 330 325 323 320 316 312 307 300 295 287 278 275 274 269 264 260 261 260 258 254 246 241 240 238 240 240 232 229 226 219 213 206 205 205 202 204 207 206 211
189 195 202 194 188 189 196 203 202 214 233 225 216 212 184 113 110 126 120 115 114 115 115 111 110 103 94 92 88 80 73 65 58 52 49 46 41 36 30 28 26 24 21 16 13 10 6 7 5 3 3 360 357 355 354 351 345 342 336 330 329 325 320 316 310 305 303 300 293 287 282 277 270 267 267 266 264 262 252 246 242 237 238 239 233 228 222 217 212 206 204 201 199 202 207 209 212
194 206 208 204 204 193 196 205 203 206 206 199 215 213 168 142 142 131 129 127 124 120 116 116 116 109 102 95 88 81 73 64 57 53 48 43 40 36 31 29 25 23 22 17 15 11 7 8 5 3 2 359 356 354 352 350 346 343 340 336 333 330 327 322 315 307 302 298 295 294 290 283 277 272 271 270 270 267 259 253 248 242 240 238 233 227 218 213 212 210 208 203 198 200 205 209 211
197 209 215 211 209 194 192 212 231 227 209 189 186 155 85 120 130 133 143 141 135 126 119 121 117 111 107 93 84 79 69 62 56 52 49 43 40 36 33 30 26 24 22 20 18 14 11 10 8 6 5 1 358 355 351 348 344 341 340 340 338 335 331 325 317 312 310 304 295 288 284 281 279 274 270 269 268 267 265 260 251 243 240 236 232 227 219 212 211 211 210 204 200 200 203 207 209
192 208 217 213 215 210 200 206 276 278 228 190 153 121 109 129 138 146 155 152 150 144 130 121 111 106 103 91 85 81 72 65 58 53 51 47 42 39 36 33 31 28 25 24 22 18 16 13 12 12 10 8 4 359 354 349 344 341 338 339 338 334 330 325 320 316 314 309 301 293 286 281 278 273 269 269 267 266 267 265 255 246 240 234 228 224 220 215 212 212 210 205 202 201 203 207 208
196 203 212 212 222 223 216 208 201 217 219 184 166 166 158 163 159 157 164 161 156 150 132 122 119 112 104 95 90 83 75 68 61 56 53 50 46 43 40 38 37 35 30 28 25 22 21 17 15 16 14 12 9 4 360 353 348 343 339 337 335 331 329 326 323 320 315 309 304 300 295 289 284 277 272 271 268 264 265 263 256 247 241 237 229 224 223 219 212 212 211 207 203 202 202 204 208
220 207 204 210 219 217 212 211 208 212 214 199 188 182 182 196 170 158 171 166 153 147 135 129 125 115 106 101 96 86 79 71 63 58 53 49 47 44 41 39 38 37 33 30 26 23 21 18 17 16 15 14 11 7 4 359 354 349 342 337 334 333 333 331 329 326 321 312 305 302 300 296 291 284 278 275 271 265 261 259 257 252 245 240 232 226 226 221 215 216 216 210 205 203 202 203 206
227 221 208 214 220 214 213 211 209 214 214 208 195 186 189 195 159 162 169 162 155 152 139 130 120 114 110 104 98 89 80 73 62 58 54 50 48 44 42 39 37 36 33 29 26 23 19 19 18 16 15 14 12 10 7 3 360 352 346 341 338 338 336 335 334 331 326 317 310 307 304 302 298 289 282 279 278 272 263 258 258 255 248 239 227 223 229 228 222 224 225 217 207 204 204 205 207
211 218 207 207 208 212 218 216 216 222 218 209 201 190 145 68 138 163 154 150 157 149 132 123 116 113 110 101 97 89 81 75 65 60 55 49 48 45 42 41 38 35 33 29 26 23 19 19 19 17 17 14 13 12 8 6 2 355 351 348 344 341 339 339 338 335 332 326 320 314 307 306 305 297 289 285 282 279 273 267 262 255 248 233 220 219 226 230 226 226 229 225 213 208 208 208 209
194 210 212 205 199 202 210 212 217 220 219 221 214 181 104 38 330 156 140 143 151 137 124 121 118 116 110 100 94 86 79 75 68 63 58 52 49 46 42 41 40 36 32 29 27 25 22 20 18 18 18 15 13 11 8 7 4 360 357 353 349 346 342 341 341 340 338 333 328 322 312 308 307 302 299 296 291 287 285 281 274 265 252 230 216 218 224 226 224 224 228 227 219 216 215 212 212